When you browse on this site, cookies collect data to enhance your experience and personalize the content and advertising you see.
Visit our Privacy Policy to learn more. By continuing to use the site, you agree to this use of cookies and data.
EN

Hourly Weather Leeds

Today, 8 July, Wednesday

Time Temperature Precipitation Wind Pressure Humidity
00:00 +13°C° 0 mm 1 mps 756 mmHg 89%
01:00 +12°C° 0.2 mm 1 mps 756 mmHg 90%
02:00 +12°C° 0.2 mm 1 mps 755 mmHg 92%
03:00 +12°C° 0.2 mm 2 mps 755 mmHg 93%
04:00 +12°C° 0.1 mm 2 mps 755 mmHg 92%
05:00 +12°C° 0.1 mm 2 mps 755 mmHg 92%
06:00 +13°C° 0 mm 2 mps 755 mmHg 91%
07:00 +13°C° 0 mm 2 mps 756 mmHg 88%
08:00 +14°C° 0 mm 2 mps 756 mmHg 85%
09:00 +13°C° 0 mm 3 mps 756 mmHg 82%
10:00 +14°C° 0 mm 3 mps 756 mmHg 78%
11:00 +16°C° 0 mm 3 mps 756 mmHg 74%
12:00 +17°C° 0 mm 3 mps 757 mmHg 71%
13:00 +17°C° 0.1 mm 3 mps 757 mmHg 72%
14:00 +15°C° 0.1 mm 4 mps 757 mmHg 74%
15:00 +15°C° 0.1 mm 4 mps 757 mmHg 76%
16:00 +15°C° 0 mm 4 mps 756 mmHg 77%
17:00 +15°C° 0 mm 4 mps 756 mmHg 77%
18:00 +15°C° 0 mm 4 mps 756 mmHg 78%
19:00 +14°C° 0.5 mm 4 mps 756 mmHg 83%
20:00 +13°C° 0.5 mm 4 mps 756 mmHg 87%
21:00 +12°C° 0.5 mm 4 mps 756 mmHg 91%
22:00 +12°C° 2.1 mm 4 mps 755 mmHg 92%
23:00 +12°C° 2.1 mm 5 mps 755 mmHg 94%

Tomorrow, 9 July, Thursday

Time Temperature Precipitation Wind Pressure Humidity
00:00 +12°C° 2.1 mm 5 mps 754 mmHg 95%
01:00 +12°C° 3.1 mm 5 mps 754 mmHg 95%
02:00 +12°C° 3.1 mm 5 mps 753 mmHg 96%
03:00 +10°C° 3.1 mm 5 mps 753 mmHg 96%
04:00 +10°C° 1.8 mm 5 mps 753 mmHg 95%
05:00 +10°C° 1.8 mm 6 mps 753 mmHg 95%
06:00 +10°C° 1.8 mm 6 mps 753 mmHg 95%
07:00 +10°C° 0.4 mm 5 mps 753 mmHg 94%
08:00 +10°C° 0.4 mm 5 mps 753 mmHg 94%
09:00 +10°C° 0.4 mm 5 mps 754 mmHg 93%
10:00 +11°C° 0.1 mm 4 mps 754 mmHg 92%
11:00 +11°C° 0.1 mm 4 mps 754 mmHg 92%
12:00 +12°C° 0.1 mm 4 mps 754 mmHg 91%
13:00 +12°C° 0.1 mm 4 mps 754 mmHg 90%
14:00 +12°C° 0.1 mm 3 mps 755 mmHg 90%
15:00 +12°C° 0.1 mm 3 mps 755 mmHg 90%
16:00 +13°C° 0.1 mm 2 mps 755 mmHg 89%
17:00 +13°C° 0.1 mm 2 mps 755 mmHg 89%
18:00 +13°C° 0.1 mm 1 mps 754 mmHg 89%
19:00 +13°C° 0 mm 1 mps 755 mmHg 89%
20:00 +12°C° 0 mm 1 mps 755 mmHg 89%
21:00 +12°C° 0 mm 1 mps 756 mmHg 89%
22:00 +12°C° 0 mm 1 mps 756 mmHg 89%
23:00 +12°C° 0 mm 1 mps 756 mmHg 89%

Day after tomorrow, 10 July, Friday

Time Temperature Precipitation Wind Pressure Humidity
00:00 +12°C° 0 mm 1 mps 755 mmHg 89%
01:00 +12°C° 0 mm 1 mps 755 mmHg 89%
02:00 +12°C° 0 mm 2 mps 755 mmHg 89%
03:00 +10°C° 0 mm 2 mps 755 mmHg 88%
04:00 +11°C° 0.1 mm 3 mps 755 mmHg 86%
05:00 +11°C° 0.1 mm 3 mps 755 mmHg 84%
06:00 +11°C° 0.1 mm 4 mps 755 mmHg 82%
07:00 +12°C° 0 mm 4 mps 756 mmHg 78%
08:00 +13°C° 0 mm 4 mps 756 mmHg 74%
09:00 +15°C° 0 mm 4 mps 756 mmHg 70%
10:00 +15°C° 0.4 mm 5 mps 756 mmHg 69%
11:00 +15°C° 0.4 mm 5 mps 757 mmHg 68%
12:00 +15°C° 0.4 mm 6 mps 757 mmHg 68%
13:00 +16°C° 0.6 mm 6 mps 757 mmHg 67%
14:00 +16°C° 0.6 mm 5 mps 757 mmHg 67%
15:00 +16°C° 0.6 mm 5 mps 758 mmHg 66%
16:00 +17°C° 0.6 mm 4 mps 758 mmHg 68%
17:00 +15°C° 0.6 mm 4 mps 759 mmHg 69%
18:00 +16°C° 0.6 mm 3 mps 759 mmHg 71%
19:00 +14°C° 0.2 mm 3 mps 760 mmHg 75%
20:00 +13°C° 0.2 mm 3 mps 760 mmHg 78%
21:00 +12°C° 0.2 mm 3 mps 761 mmHg 81%
22:00 +11°C° 0 mm 3 mps 761 mmHg 82%
23:00 +11°C° 0 mm 3 mps 761 mmHg 83%

11 July, Saturday

Time Temperature Precipitation Wind Pressure Humidity
00:00 +10°C° 0 mm 3 mps 761 mmHg 84%
01:00 +10°C° 0 mm 3 mps 762 mmHg 84%
02:00 +10°C° 0 mm 3 mps 762 mmHg 85%
03:00 +9°C° 0 mm 3 mps 762 mmHg 86%
04:00 +10°C° 0 mm 3 mps 762 mmHg 84%
05:00 +10°C° 0 mm 3 mps 762 mmHg 83%
06:00 +11°C° 0 mm 3 mps 762 mmHg 81%
07:00 +12°C° 0 mm 4 mps 763 mmHg 76%
08:00 +13°C° 0 mm 4 mps 763 mmHg 71%
09:00 +15°C° 0 mm 5 mps 764 mmHg 66%
10:00 +15°C° 0 mm 5 mps 764 mmHg 63%
11:00 +17°C° 0 mm 4 mps 764 mmHg 61%
12:00 +18°C° 0 mm 4 mps 764 mmHg 59%
13:00 +18°C° 0.1 mm 4 mps 764 mmHg 59%
14:00 +18°C° 0.1 mm 4 mps 764 mmHg 60%
15:00 +18°C° 0.1 mm 4 mps 764 mmHg 60%
16:00 +18°C° 0 mm 4 mps 764 mmHg 63%
17:00 +17°C° 0 mm 4 mps 764 mmHg 66%
18:00 +16°C° 0 mm 5 mps 764 mmHg 69%
19:00 +14°C° 0 mm 4 mps 765 mmHg 73%
20:00 +13°C° 0 mm 3 mps 765 mmHg 77%
21:00 +12°C° 0 mm 2 mps 765 mmHg 81%
22:00 +12°C° 0 mm 2 mps 765 mmHg 82%
23:00 +10°C° 0 mm 2 mps 765 mmHg 83%

12 July, Sunday

Time Temperature Precipitation Wind Pressure Humidity
00:00 +10°C° 0 mm 2 mps 765 mmHg 84%
01:00 +11°C° 0 mm 1 mps 765 mmHg 85%
02:00 +11°C° 0 mm 1 mps 765 mmHg 86%
03:00 +10°C° 0 mm 1 mps 765 mmHg 88%
04:00 +11°C° 0 mm 1 mps 765 mmHg 86%
05:00 +12°C° 0 mm 1 mps 765 mmHg 84%
06:00 +13°C° 0 mm 1 mps 765 mmHg 82%
07:00 +14°C° 0 mm 1 mps 765 mmHg 76%
08:00 +16°C° 0 mm 2 mps 765 mmHg 69%
09:00 +17°C° 0 mm 2 mps 765 mmHg 63%
10:00 +18°C° 0 mm 2 mps 765 mmHg 60%
11:00 +19°C° 0 mm 2 mps 765 mmHg 56%
12:00 +20°C° 0 mm 3 mps 765 mmHg 52%
13:00 +20°C° 0 mm 3 mps 765 mmHg 52%
14:00 +21°C° 0 mm 3 mps 764 mmHg 52%
15:00 +21°C° 0 mm 3 mps 764 mmHg 51%
16:00 +20°C° 0 mm 3 mps 764 mmHg 56%
17:00 +20°C° 0 mm 3 mps 764 mmHg 60%
18:00 +19°C° 0 mm 3 mps 764 mmHg 65%
19:00 +18°C° 0 mm 2 mps 764 mmHg 67%
20:00 +16°C° 0 mm 2 mps 764 mmHg 69%
21:00 +15°C° 0 mm 2 mps 764 mmHg 71%
22:00 +15°C° 0 mm 2 mps 763 mmHg 71%
23:00 +15°C° 0 mm 2 mps 763 mmHg 71%

13 July, Monday

Time Temperature Precipitation Wind Pressure Humidity
00:00 +15°C° 0 mm 1 mps 763 mmHg 71%
01:00 +15°C° 0 mm 1 mps 762 mmHg 71%
02:00 +15°C° 0 mm 2 mps 762 mmHg 72%
03:00 +14°C° 0 mm 2 mps 762 mmHg 73%
04:00 +14°C° 0 mm 2 mps 761 mmHg 73%
05:00 +14°C° 0 mm 2 mps 761 mmHg 73%
06:00 +14°C° 0 mm 2 mps 761 mmHg 73%
07:00 +13°C° 0.1 mm 3 mps 761 mmHg 75%
08:00 +13°C° 0.1 mm 3 mps 761 mmHg 77%
09:00 +13°C° 0.1 mm 3 mps 760 mmHg 80%
10:00 +14°C° 0.1 mm 4 mps 760 mmHg 79%
11:00 +15°C° 0.1 mm 4 mps 760 mmHg 77%
12:00 +15°C° 0.1 mm 4 mps 760 mmHg 76%
13:00 +17°C° 0.1 mm 4 mps 759 mmHg 74%
14:00 +17°C° 0.1 mm 5 mps 759 mmHg 71%
15:00 +17°C° 0.1 mm 5 mps 759 mmHg 69%
16:00 +17°C° 0 mm 5 mps 758 mmHg 70%
17:00 +17°C° 0 mm 5 mps 758 mmHg 71%
18:00 +16°C° 0 mm 5 mps 758 mmHg 73%
19:00 +16°C° 0 mm 5 mps 758 mmHg 76%
20:00 +15°C° 0 mm 4 mps 758 mmHg 80%
21:00 +14°C° 0 mm 4 mps 758 mmHg 83%
22:00 +13°C° 0 mm 4 mps 758 mmHg 84%
23:00 +13°C° 0 mm 3 mps 758 mmHg 86%
Show more